GW3210 Weather Reports


time (UTC)temp
F
wind
direction
speed
knots
gust
knots
rain 1hr
in
rain 24hr
in
rain mn
in
humidity
%
barometer
mb
20260904202616 70 293 3.5 4.3 0.00 0.08 0.05 41 1014.7
20260904201616 68 338 2.6 3.5 0.00 0.08 0.05 44 1014.8
20260904200616 68 338 2.6 4.3 0.00 0.08 0.05 44 1014.9
20260904195616 69 0 0.9 1.7 0.00 0.08 0.05 43 1015.0
20260904194616 69 293 2.6 3.5 0.00 0.08 0.05 44 1015.1
20260904193616 68 338 2.6 3.5 0.00 0.08 0.05 51 1015.1
20260904192636 66 270 0.9 2.6 0.00 0.08 0.05 48 1015.1
20260904191616 67 315 1.7 2.6 0.00 0.08 0.05 49 1015.3
20260904190616 67 338 0.9 1.7 0.00 0.08 0.05 55 1015.5
20260904185616 67 315 0.9 1.7 0.00 0.10 0.05 55 1015.4
20260904184616 66 315 1.7 1.7 0.00 0.18 0.05 60 1015.4
20260904183636 64 0.0 0.9 0.00 0.18 0.05 60 1015.3
20260904182616 63 293 0.9 1.7 0.00 0.18 0.05 64 1015.3
20260904181616 63 113 1.7 2.6 0.00 0.18 0.05 60 1015.3
20260904180616 62 0 0.9 1.7 0.00 0.18 0.05 68 1015.2
20260904175616 61 68 0.9 1.7 0.00 0.18 0.05 68 1015.1
20260904174616 60 90 1.7 2.6 0.00 0.18 0.05 66 1015.1
20260904173615 60 158 0.9 1.7 0.00 0.18 0.05 68 1015.0
20260904172616 60 158 0.9 1.7 0.00 0.18 0.05 69 1014.9
20260904171635 60 135 1.7 2.6 0.00 0.18 0.05 70 1014.9
20260904170615 60 180 2.6 4.3 0.00 0.18 0.05 69 1014.9
20260904165635 59 113 1.7 3.5 0.00 0.18 0.05 71 1014.8
20260904164616 58 135 0.9 2.6 0.00 0.18 0.05 73 1014.7
20260904163616 57 113 1.7 1.7 0.00 0.18 0.05 76 1014.6
20260904162616 56 158 1.7 2.6 0.00 0.18 0.05 80 1014.6
20260904161616 55 135 2.6 3.5 0.00 0.20 0.05 80 1014.5
20260904160635 54 135 5.2 7.0 0.00 0.22 0.05 83 1014.6
20260904155616 54 135 4.3 7.0 0.00 0.23 0.05 83 1014.6
20260904154615 53 158 2.6 3.5 0.00 0.24 0.05 83 1014.5
20260904153615 53 135 2.6 3.5 0.00 0.24 0.05 83 1014.4
20260904152635 53 113 1.7 2.6 0.00 0.24 0.05 83 1014.3
20260904151615 53 113 2.6 3.5 0.00 0.24 0.05 84 1014.2
20260904150615 52 135 0.9 1.7 0.00 0.25 0.05 84 1014.2
20260904145615 52 158 0.9 1.7 0.01 0.25 0.05 84 1014.1
20260904144615 52 135 2.6 3.5 0.01 0.26 0.05 83 1014.1
20260904143615 52 135 3.5 4.3 0.01 0.28 0.05 84 1014.1
20260904142615 52 135 0.9 1.7 0.01 0.29 0.05 83 1013.9
20260904141635 52 135 1.7 2.6 0.01 0.29 0.05 83 1013.8
20260904140615 52 158 1.7 3.5 0.01 0.29 0.05 83 1013.6
20260904135616 52 0.0 0.0 0.01 0.30 0.04 83 1013.4
20260904134615 52 158 1.7 3.5 0.01 0.32 0.04 83 1013.5
20260904133615 51 158 3.5 4.3 0.01 0.32 0.04 83 1013.5
20260904132615 51 180 2.6 4.3 0.02 0.32 0.04 83 1013.4
20260904131615 51 135 1.7 2.6 0.03 0.33 0.04 83 1013.1
20260904130615 51 90 0.9 2.6 0.04 0.33 0.04 83 1012.9
20260904125657 51 135 1.7 2.6 0.03 0.32 0.03 83 1012.8
20260904124617 52 90 1.7 2.6 0.03 0.32 0.03 83 1012.8
20260904123617 52 90 0.9 0.9 0.03 0.32 0.03 83 1012.8
20260904122617 52 158 0.9 1.7 0.02 0.31 0.02 83 1012.9
20260904121617 52 135 1.7 2.6 0.01 0.30 0.01 83 1012.9
20260904120637 53 135 4.3 7.8 0.00 0.29 0.00 83 1012.9
20260904115617 53 158 4.3 7.0 0.00 0.29 0.00 83 1012.9
20260904114617 53 135 5.2 7.8 0.00 0.29 0.00 83 1012.8
20260904113617 53 158 3.5 4.3 0.00 0.29 0.00 82 1012.7
20260904112615 53 135 2.6 3.5 0.00 0.29 0.00 81 1012.6
20260904111617 53 135 5.2 7.8 0.00 0.29 0.00 81 1012.6
20260904110617 52 135 6.1 8.7 0.00 0.29 0.00 80 1012.5
20260904105638 52 135 2.6 3.5 0.00 0.29 0.00 80 1012.4
20260904104617 52 135 3.5 5.2 0.00 0.29 0.00 80 1012.3
20260904103617 52 135 3.5 4.3 0.00 0.29 0.00 81 1012.3
20260904102637 53 135 3.5 5.2 0.00 0.29 0.00 81 1012.3
20260904101617 53 113 1.7 2.6 0.00 0.29 0.00 81 1012.1
20260904100617 53 135 2.6 2.6 0.00 0.29 0.00 81 1012.2
20260904095617 53 135 1.7 1.7 0.00 0.29 0.00 80 1012.2
20260904094617 52 135 3.5 4.3 0.00 0.29 0.00 79 1012.1
20260904093617 52 135 4.3 6.1 0.00 0.29 0.00 78 1012.1
20260904092616 52 135 1.7 2.6 0.00 0.29 0.00 78 1011.9
20260904091637 52 158 2.6 3.5 0.00 0.29 0.00 78 1011.9
20260904090616 52 135 1.7 2.6 0.00 0.29 0.00 78 1012.0
20260904085617 52 158 2.6 4.3 0.00 0.29 0.00 78 1012.1
20260904084617 52 135 1.7 2.6 0.00 0.29 0.00 78 1012.0
20260904083616 52 135 3.5 4.3 0.00 0.29 0.00 78 1012.0
20260904082617 52 158 1.7 2.6 0.00 0.29 0.00 78 1012.0
20260904081637 52 90 1.7 2.6 0.00 0.29 0.00 78 1011.9
20260904080616 52 90 0.9 2.6 0.00 0.30 0.00 78 1011.9
20260904075617 52 90 2.6 3.5 0.00 0.30 0.00 78 1011.9
20260904074616 53 90 2.6 3.5 0.00 0.30 0.00 78 1012.0
20260904073617 53 90 1.7 3.5 0.00 0.30 0.00 79 1012.1
20260904072617 53 90 2.6 5.2 0.00 0.30 0.00 79 1012.0
20260904065615 53 113 1.7 5.2 0.00 0.30 0.30 80 1012.1
20260904064615 53 113 1.7 2.6 0.00 0.30 0.30 79 1012.1
20260904063617 54 90 1.7 2.6 0.00 0.31 0.30 80 1012.2
20260904062617 54 113 1.7 2.6 0.00 0.31 0.30 80 1012.2
20260904061617 54 0.0 0.9 0.00 0.31 0.30 80 1012.2
20260904060617 54 113 0.9 1.7 0.00 0.31 0.30 80 1012.2
20260904055637 55 135 1.7 2.6 0.00 0.31 0.30 80 1012.1
20260904054617 54 135 2.6 3.5 0.00 0.31 0.30 79 1012.3
20260904053617 54 135 1.7 1.7 0.00 0.31 0.30 78 1012.3
20260904052617 54 135 0.9 0.9 0.00 0.31 0.30 78 1012.2
20260904051617 54 158 1.7 2.6 0.00 0.31 0.30 77 1012.2
20260904050637 54 113 0.9 1.7 0.00 0.31 0.30 77 1012.2
20260904045617 54 158 1.7 2.6 0.00 0.31 0.30 76 1012.1
20260904044617 54 135 2.6 3.5 0.00 0.31 0.30 76 1012.0
20260904043617 54 135 1.7 2.6 0.00 0.31 0.30 76 1012.1
20260904042617 54 135 1.7 2.6 0.00 0.31 0.30 76 1012.1
20260904041617 54 135 1.7 2.6 0.00 0.31 0.30 76 1012.1
20260904040617 54 135 1.7 2.6 0.00 0.31 0.30 76 1012.1
20260904035617 54 90 0.9 1.7 0.00 0.31 0.30 76 1012.1
20260904034657 54 68 1.7 2.6 0.00 0.31 0.30 76 1012.0
20260904033617 54 90 1.7 3.5 0.00 0.31 0.30 76 1011.9
20260904032636 54 90 1.7 2.6 0.00 0.31 0.30 76 1011.7
20260904031617 54 90 0.9 2.6 0.00 0.31 0.30 76 1011.7
20260904030637 54 90 0.9 2.6 0.00 0.31 0.30 76 1011.6
20260904025636 54 90 0.9 1.7 0.00 0.31 0.30 76 1011.6
20260904024616 55 113 0.9 1.7 0.00 0.31 0.30 76 1011.6
20260904023637 55 90 0.9 0.9 0.00 0.31 0.30 76 1011.5
20260904022616 55 113 0.9 3.5 0.00 0.31 0.30 76 1011.4
20260904021616 55 90 1.7 1.7 0.00 0.31 0.30 76 1011.4
20260904020657 55 90 1.7 2.6 0.00 0.31 0.30 76 1011.5
20260904015616 55 135 1.7 2.6 0.00 0.31 0.30 76 1011.5
20260904014616 55 113 1.7 1.7 0.00 0.31 0.30 76 1011.5
20260904013616 55 113 1.7 2.6 0.00 0.31 0.30 75 1011.6
20260904012616 55 90 1.7 2.6 0.00 0.31 0.30 75 1011.7
20260904011637 55 90 0.9 2.6 0.00 0.31 0.30 75 1011.8
20260904010617 55 113 0.9 2.6 0.00 0.31 0.30 75 1011.7
20260904005617 56 0.0 0.9 0.00 0.31 0.30 75 1011.7
20260904004616 56 0.0 0.9 0.00 0.32 0.30 76 1011.9
20260904003616 56 0.0 0.9 0.01 0.32 0.30 76 1011.9
20260904002616 57 68 0.9 1.7 0.02 0.32 0.30 75 1011.9
20260904001616 57 0.0 0.9 0.03 0.32 0.30 76 1011.8
20260904000616 57 135 0.9 1.7 0.03 0.32 0.30 75 1011.9
20260903235616 57 0.0 0.9 0.03 0.32 0.30 74 1011.8
20260903234616 57 0.0 0.9 0.03 0.32 0.30 73 1011.8
20260903233616 58 248 0.9 1.7 0.02 0.31 0.29 71 1011.9
20260903232617 60 225 1.7 3.5 0.01 0.30 0.28 68 1011.8
20260903231616 61 270 4.3 7.0 0.00 0.30 0.27 62 1011.8
20260903230637 62 315 1.7 2.6 0.00 0.31 0.27 62 1011.7
20260903225636 62 248 1.7 1.7 0.00 0.33 0.27 62 1011.8
20260903224617 62 0.0 0.0 0.00 0.33 0.27 65 1011.8
20260903223656 61 248 0.9 1.7 0.00 0.33 0.27 62 1011.9
20260903222616 61 135 1.7 2.6 0.00 0.33 0.27 63 1011.9
20260903221616 60 135 0.9 2.6 0.00 0.33 0.27 64 1012.0
20260903220616 60 180 1.7 4.3 0.00 0.33 0.27 65 1012.0
20260903215616 60 203 2.6 3.5 0.00 0.33 0.27 64 1012.0
20260903214616 60 180 3.5 5.2 0.00 0.34 0.27 64 1012.0
20260903213616 60 158 1.7 3.5 0.00 0.34 0.27 68 1012.1
20260903212616 59 203 1.7 4.3 0.00 0.34 0.27 66 1012.1
20260903211616 59 203 2.6 4.3 0.00 0.35 0.27 68 1012.1
20260903210616 59 158 2.6 4.3 0.00 0.36 0.27 69 1012.1
20260903205616 59 180 1.7 2.6 0.00 0.37 0.27 71 1012.0
20260903204636 59 113 1.7 3.5 0.00 0.38 0.27 71 1012.0
20260903203616 59 135 2.6 3.5 0.00 0.40 0.27 70 1012.0